Regional Weather Roundup
Issued by NWS Northern Indiana

Home | Current Version | Previous Version | Text Only | Print | Product List | Glossary Off
Versions: 1 2 3 4 5 6 7 8 9 10 11 12 13 14 15 16 17 18 19 20 21 22 23 24 25 26 27 28 29 30 31 32 33 34 35 36 37 38 39 40 41 42 43 44 45 46 47 48 49 50

000
ASUS43 KIWX 291210
RWRIWX

KIWX WEATHER ROUNDUP
NATIONAL WEATHER SERVICE NORTHERN INDIANA
800 AM EDT SUN MAY 29 2016

NOTE: "FAIR" INDICATES FEW OR NO CLOUDS BELOW 12,000 FEET WITH NO
SIGNIFICANT WEATHER AND/OR OBSTRUCTIONS TO VISIBILITY.

* THESE STATIONS ARE NOT UNDER NWS QUALITY CONTROL. THEY ALSO MAY NOT
  REPORT WEATHER SUCH AS PRECIPITATION OR FOG.

INZ001>027-291300-
NORTHERN INDIANA

CITY           SKY/WX    TMP DP  RH WIND       PRES   REMARKS
GARY*          MOSUNNY   70  68  94 S9        30.02R
VALPARAISO     SUNNY     67  59  75 S8        30.03R
6HR MIN TEMP:  62; 6HR MAX TEMP:  71;

MICHIGAN CITY* SUNNY     68  59  73 S7        30.02S
LAPORTE*       SUNNY     67  59  76 SW3       30.03S
6HR MIN TEMP:  64; 6HR MAX TEMP:  72;

KNOX*          SUNNY     66  50  55 S8        30.02S
SOUTH BEND     MOSUNNY   67  58  72 S9        30.03R
6HR MIN TEMP:  64; 6HR MAX TEMP:  71;

ELKHART*       MOSUNNY   68  66  94 MISG      30.04
GOSHEN         MOSUNNY   70  64  81 S8        30.03S
6HR MIN TEMP:  67; 6HR MAX TEMP:  71;

MONTICELLO*    SUNNY     68  63  84 S6        30.03S
6HR MIN TEMP:  65; 6HR MAX TEMP:  70;

LOGANSPORT*    MOSUNNY   68  66  94 S13       30.05S
ROCHESTER*     PTSUNNY   70  68  94 S8        30.04S FOG
WARSAW*        MOSUNNY   70  64  83 SW5       30.04S
ANGOLA*          N/A     70  63  78 SW7       30.05R
FORT WAYNE     PTSUNNY   71  66  84 S8        30.06R
6HR MIN TEMP:  68; 6HR MAX TEMP:  71;

HUNTINGTON*    MOSUNNY   70  66  88 SW6       30.05R
PERU/GRISSOM   MOSUNNY   70  68  95 SW9       30.04S
6HR MIN TEMP:  67; 6HR MAX TEMP:  71;

MARION*        SUNNY     69  65  88 SW9       30.07R FOG
6HR MIN TEMP:  -1; 6HR MAX TEMP:  86;


$$
INZ028>050-291300-
CENTRAL INDIANA

CITY           SKY/WX    TMP DP  RH WIND       PRES   REMARKS
LAFAYETTE      SUNNY     68  65  90 CALM      30.04R
6HR MIN TEMP:  61; 6HR MAX TEMP:  69;

KOKOMO*        SUNNY     72  63  73 SW10      30.05S
6HR MIN TEMP:  66; 6HR MAX TEMP:  72;

MUNCIE*        SUNNY     72  65  78 S7        30.07S
6HR MIN TEMP:  70; 6HR MAX TEMP:  72;

INDIANAPOLIS   PTSUNNY   70  66  87 SW10      30.06R
6HR MIN TEMP:  68; 6HR MAX TEMP:  70;


$$
MIZ043>046-050>051-056>058-064>065-071>073-077>080-291300-
SOUTHWEST LOWER MICHIGAN

CITY           SKY/WX    TMP DP  RH WIND       PRES   REMARKS
BATTLE CREEK   MOSUNNY   69  65  86 SW12      30.03R
6HR MIN TEMP:  66; 6HR MAX TEMP:  71;

BENTON HARBOR  SUNNY     68  57  68 S6        30.01R
6HR MIN TEMP:  64; 6HR MAX TEMP:  72;

COLDWATER*     MOSUNNY   70  65  86 SW8       30.04R
6HR MIN TEMP:  67; 6HR MAX TEMP:  72;

HILLSDALE*     PTSUNNY   67  65  91 SW7       30.06R FOG
HOLLAND        SUNNY     69  60  73 SW9       30.00R
6HR MIN TEMP:  63; 6HR MAX TEMP:  69;

GRAND RAPIDS   PTSUNNY   71  63  75 S10       30.00R
6HR MIN TEMP:  67; 6HR MAX TEMP:  75;

KALAMAZOO      MOSUNNY   70  63  78 S10       30.02R
6HR MIN TEMP:  67; 6HR MAX TEMP:  71;

STURGIS*       MOSUNNY   69  64  83 SW8       30.03S
6HR MIN TEMP:  65; 6HR MAX TEMP:  70;

THREE RIVERS*  FAIR      70  64  80 SW9       30.03S
6HR MIN TEMP:  67; 6HR MAX TEMP:  72;


$$
OHZ001>008-015>018-024>025-291300-
NORTHWEST OHIO

CITY           SKY/WX    TMP DP  RH WIND       PRES   REMARKS
WAUSEON*         N/A     70  70 100 S10       30.05S
DEFIANCE       CLOUDY    70  64  81 S7        30.05S
6HR MIN TEMP:  69; 6HR MAX TEMP:  71;

FINDLAY        MOSUNNY   71  63  75 S9        30.06F
6HR MIN TEMP:  66; 6HR MAX TEMP:  71;

TOLEDO EXPRESS CLOUDY    70  64  81 SW6       30.05S
6HR MIN TEMP:  65; 6HR MAX TEMP:  70;

TOLEDO METCALF PTSUNNY   71  64  78 S7        30.06S
6HR MIN TEMP:  66; 6HR MAX TEMP:  71;

LIMA           CLOUDY    69  65  86 S9        30.08S
6HR MIN TEMP:  65; 6HR MAX TEMP:  70;


$$
AND FOR LAKE MICHIGAN COASTAL AND OPEN LAKE BUOY OBSERVATIONS

STATION/POSITION TEMP    WIND        PRES    VSBY  WAVE
                 AIR SEA DIR/SP/G                  HT/PER
                 (F)     (DEG/KT/KT) (MB)    (MI)  (FT/S)
CALUMET HARBOR    65     200/  8/ 12 1015.1R
MICHIGAN CITY     66     180/ 11/ 13   N/A
BURNS HARBOR      66     200/ 11/ 16 1016.3R
SAINT JOSEPH      68     180/  9/ 13 1016.9R
SOUTH LAKE BUOY   54 50  170/ 10/ 10 1014.6R         1/ 3
4 MI NW BRIDGMAN  64 61  170/  6/  8   N/A           1/ 3
MICHIGAN CITY     62 56  220/  8/ 10   N/A           1/ 2

$$
&&



USA.gov is the U.S. government's official web portal to all federal, state and local government web resources and services.